Find Starlink 4458

NORAD ID: 53668 Int'l Des: 2022-105 Owner: SPXS Country: US Constellation: starlink operational
LEOCIRCULARRETROGRADESSO

リアルタイム位置

3D地球を読み込み中...

Starlink 4458について

説明を読み込み中...

次回通過

Passes for default location (London). Set your location on the main map for personalized predictions.

高度履歴

Loading altitude history...

軌道要素

1 53668U 22105W 26134.33334491 -.00005461 00000-0 -18123-3 0 9990
2 53668 97.6032 17.1823 0002026 80.4766 261.4204 15.30785983 5812
Epoch: May 14, 2026 • Age: 5 hours

現在のステータス

高度 480.3 km
速度 7.63 km/s
衛星直下点 48.82°N, 133.51°E
打ち上げ日 Aug 31, 2022
運用期間 3.7 years
タイプ internet

技術仕様

分類 Payload
質量 300.00 kg
乾燥質量 290.00 kg
総質量 300.00 kg
長さ 0.20 m
直径 2.80 m
スパン 9.00 m
形状 Box + pan
製造者 SPXS
バスタイプ Starlink
フェーズステータス In Orbit
所有者/国 SPXS/US

Most Searched